OSCAR 24

Last updated on Sat Sep 05 2026 00:03:34 GMT+0000 (Coordinated Universal Time)

1 15936U 85066B 26247.52488169 .00000047 00000+0 66832-4 0 9992 2 15936 90.1636 96.8018 0170581 60.6393 317.9386 13.35977509 1931
UTC large
Height (km)
Speed (km/s)
/
Latitude / Longitude
Inclination (degrees)
Orbital Period (minutes)
Azimuth
Elevation
Range (km)
Doppler Factor

Next 0 passes for location: London (51.5072 / 0.1276)

No passes found over London.
OSCAR 24